призрачный форум

www.prizrak.ws

Информация о пользователе

Привет, Гость! Войдите или зарегистрируйтесь.


Вы здесь » www.prizrak.ws » Software, ОС, программное обеспечение..


Software, ОС, программное обеспечение..

Тем 16301 страница 16350 из 157853

Тема Ответов Просмотров Последнее сообщение
16301 Scania XCom v2.30  Xue Wang
0 4 2020-08-12 09:03:13  Xue Wang
16302 IHS FieldNotes v6.1.4  Xue Wang
0 0 2020-08-12 08:53:29  Xue Wang
16303 Ceramill mind v2.2.5  Xue Wang
0 4 2020-08-12 08:46:39  Xue Wang
0 4 2020-08-12 08:42:36  Xue Wang
0 0 2020-08-12 08:30:33  Xue Wang
0 0 2020-08-12 08:26:55  Xue Wang
16307 Safer TRACE v10.2  Xue Wang
0 0 2020-08-12 08:20:16  Xue Wang
16308 IHS Evolution v1.2.3  Xue Wang
0 4 2020-08-12 08:09:21  Xue Wang
0 0 2020-08-12 08:07:08  Xue Wang
16310 SVI.Pro.v2.1  Xue Wang
0 0 2020-08-12 07:58:49  Xue Wang
16311 IHS EViews v10.0 Win32 64  Xue Wang
0 4 2020-08-12 07:48:06  Xue Wang
16312 Carlson Xport v4.19  Xue Wang
0 0 2020-08-12 07:47:01  Xue Wang
16313 STS WINROAD 2018  Xue Wang
0 1 2020-08-12 07:37:20  Xue Wang
16314 Carel 1tool 2.6.46  Xue Wang
0 4 2020-08-12 07:27:52  Xue Wang
16315 IHS DEEPE$T v3.7  Xue Wang
0 0 2020-08-12 07:27:39  Xue Wang
16316 STATA v14.2  Xue Wang
0 1 2020-08-12 07:18:08  Xue Wang
16317 Cape pack V2.15  Xue Wang
0 1 2020-08-12 07:09:17  Xue Wang
16318 IGOR Pro v7  Xue Wang
0 1 2020-08-12 07:08:43  Xue Wang
16319 STAB WELL v4.4  Xue Wang
0 1 2020-08-12 06:58:52  Xue Wang
0 6 2020-08-12 06:50:32  Xue Wang
16321 IGI ParCAM v8.8  Xue Wang
0 1 2020-08-12 06:50:16  Xue Wang
0 0 2020-08-12 06:39:43  Xue Wang
0 4 2020-08-12 06:33:19  Xue Wang
16324 IES Oersted v9.2  Xue Wang
0 4 2020-08-12 06:31:18  Xue Wang
16325 SPT wellflo v8.3  Xue Wang
0 8 2020-08-12 06:21:00  Xue Wang
16326 Cadence MMSIM v15.10.385  Xue Wang
0 0 2020-08-12 06:15:32  Xue Wang
16327 IES Magneto v9.2  Xue Wang
0 2 2020-08-12 06:12:17  Xue Wang
16328 SPSQC v7.5  Xue Wang
0 4 2020-08-12 06:03:01  Xue Wang
16329 Cadence MDV 18.03 Linux  Xue Wang
0 4 2020-08-12 05:57:43  Xue Wang
16330 IES Faraday v9.2 x64  Xue Wang
0 0 2020-08-12 05:53:02  Xue Wang
16331 SPEOS v2018.1.0 x64  Xue Wang
0 0 2020-08-12 05:44:05  Xue Wang
16332 Cadaplus APLUS v18.034  Xue Wang
0 4 2020-08-12 05:39:25  Xue Wang
16333 IES Electro v9.2  Xue Wang
0 4 2020-08-12 05:31:41  Xue Wang
0 4 2020-08-12 05:25:04  Xue Wang
16335 CadLink SignLab v10.0  Xue Wang
0 0 2020-08-12 05:21:08  Xue Wang
16336 IDEA.StatiCa.v10.0.24 x64  Xue Wang
0 0 2020-08-12 05:13:37  Xue Wang
0 0 2020-08-12 05:05:01  Xue Wang
16338 CablEquity v2013  Xue Wang
0 0 2020-08-12 05:02:57  Xue Wang
16339 ICADSX.Mechanical v6L1  Xue Wang
0 0 2020-08-12 04:54:11  Xue Wang
16340 SPACE-E.v5.4  Xue Wang
0 0 2020-08-12 04:45:48  Xue Wang
16341 CYMGRD v6.51  Xue Wang
0 0 2020-08-12 04:44:09  Xue Wang
16342 ICAD MX V7L1  Xue Wang
0 0 2020-08-12 04:35:00  Xue Wang
16343 SOFTWARE ENGINEERING  Xue Wang
0 4 2020-08-12 04:27:17  Xue Wang
16344 CYMCAP 7.2  Xue Wang
0 0 2020-08-12 04:27:02  Xue Wang
16345 IBM.Rational.DOORs v9.2  Xue Wang
0 0 2020-08-12 04:17:42  Xue Wang
0 4 2020-08-12 04:09:58  Xue Wang
16347 CX Supervisor v3.24  Xue Wang
0 4 2020-08-12 04:08:48  Xue Wang
0 4 2020-08-12 03:59:05  Xue Wang
0 0 2020-08-12 03:52:44  Xue Wang
0 3 2020-08-12 03:52:29  Xue Wang

Вы здесь » www.prizrak.ws » Software, ОС, программное обеспечение..